{"data":{"norad_id":56744,"epoch":"2026-09-21T21:36:57.055104Z","epoch_age_seconds":75714,"freshness":"FRESH","line1":"1 56744U 23072B   26264.90066036  .00014975  00000+0  30982-3 0  9990","line2":"2 56744  97.5153 114.1885 0004414 353.1968   6.9220 15.45886826185033","mean_motion":15.45886826,"eccentricity":0.0004414,"inclination_deg":97.5153,"raan_deg":114.1885,"arg_perigee_deg":353.1968,"mean_anomaly_deg":6.922,"bstar":0.00030982,"rev_number":18503,"period_min":93.150415397873,"perigee_km":425.76898492441,"apogee_km":431.77812556258,"semimajor_km":6806.9105552435,"source":"CELESTRAK","updated_at":"2026-09-22T09:00:25.904916Z"}}